Time,TemperatureF,DewpointF,PressureIn,WindDirection,WindDirectionDegrees,WindSpeedMPH,WindSpeedGustMPH,Humidity,HourlyPrecipIn,Conditions,Clouds,dailyrainin,SolarRadiationWatts/m^2,SoftwareType,DateUTC
2013-01-02 00:04:00,36.3,31.9,29.56,South,171,8.1,0.0,84,0.00,CLR,CLR,0.00,0.0,WeatherDisplay:10.37,2013-01-02 08:04:00,
2013-01-02 00:09:00,36.3,31.9,29.56,East,92,8.1,0.0,84,0.00,CLR,CLR,0.00,0.0,WeatherDisplay:10.37,2013-01-02 08:09:00,
2013-01-02 00:14:00,36.3,31.9,29.56,East,92,8.1,0.0,84,0.00,CLR,CLR,0.00,0.0,WeatherDisplay:10.37,2013-01-02 08:14:00,
2013-01-02 00:20:00,36.3,31.9,29.56,East,92,8.1,0.0,84,0.00,CLR,CLR,0.00,0.0,WeatherDisplay:10.37,2013-01-02 08:20:00,
2013-01-02 00:25:00,36.3,31.9,29.56,East,92,8.1,0.0,84,0.00,CLR,CLR,0.00,0.0,WeatherDisplay:10.37,2013-01-02 08:25:00,
2013-01-02 00:30:00,36.3,31.9,29.56,East,92,8.1,0.0,84,0.00,CLR,CLR,0.00,0.0,WeatherDisplay:10.37,2013-01-02 08:30:00,
2013-01-02 00:35:00,36.1,31.8,29.56,East,92,8.1,0.0,84,0.00,CLR,CLR,0.00,0.0,WeatherDisplay:10.37,2013-01-02 08:35:00,
2013-01-02 00:40:00,36.1,31.8,29.56,South,182,8.1,0.0,84,0.00,CLR,CLR,0.00,0.0,WeatherDisplay:10.37,2013-01-02 08:40:00,
2013-01-02 00:45:00,36.1,31.8,29.56,South,182,8.1,0.0,84,0.00,CLR,CLR,0.00,0.0,WeatherDisplay:10.37,2013-01-02 08:45:00,
2013-01-02 00:50:00,36.1,31.8,29.56,SSW,197,8.1,0.0,84,0.00,CLR,CLR,0.00,0.0,WeatherDisplay:10.37,2013-01-02 08:50:00,
2013-01-02 00:55:00,36.1,31.8,29.56,ESE,116,8.1,0.0,84,0.00,CLR,CLR,0.00,0.0,WeatherDisplay:10.37,2013-01-02 08:55:00,
2013-01-02 01:00:00,36.1,31.8,29.56,SE,137,8.1,0.0,84,0.00,CLR,CLR,0.00,0.0,WeatherDisplay:10.37,2013-01-02 09:00:00,
2013-01-02 01:05:00,36.0,31.6,29.56,SE,137,8.1,0.0,84,0.00,CLR,CLR,0.00,0.0,WeatherDisplay:10.37,2013-01-02 09:05:00,
2013-01-02 01:11:00,36.0,31.6,29.56,SE,137,8.1,0.0,84,0.00,CLR,CLR,0.00,0.0,WeatherDisplay:10.37,2013-01-02 09:11:00,
2013-01-02 01:16:00,36.0,31.6,29.56,SE,137,8.1,0.0,84,0.00,CLR,CLR,0.00,0.0,WeatherDisplay:10.37,2013-01-02 09:16:00,
2013-01-02 01:21:00,35.8,31.4,29.56,SE,137,8.1,0.0,84,0.00,CLR,CLR,0.00,0.0,WeatherDisplay:10.37,2013-01-02 09:21:00,
2013-01-02 01:26:00,35.8,31.4,29.56,SE,137,8.1,0.0,84,0.00,CLR,CLR,0.00,0.0,WeatherDisplay:10.37,2013-01-02 09:26:00,
2013-01-02 01:31:00,35.6,31.2,29.56,SE,137,8.1,0.0,84,0.00,CLR,CLR,0.00,0.0,WeatherDisplay:10.37,2013-01-02 09:31:00,
2013-01-02 01:36:00,35.6,31.2,29.56,SE,137,8.1,0.0,84,0.00,CLR,CLR,0.00,0.0,WeatherDisplay:10.37,2013-01-02 09:36:00,
2013-01-02 01:41:00,35.4,31.1,29.56,SE,137,8.1,0.0,84,0.00,CLR,CLR,0.00,0.0,WeatherDisplay:10.37,2013-01-02 09:41:00,
2013-01-02 01:46:00,35.4,31.1,29.56,SE,136,8.1,0.0,84,0.00,CLR,CLR,0.00,0.0,WeatherDisplay:10.37,2013-01-02 09:46:00,
2013-01-02 01:51:00,35.4,31.1,29.56,SE,137,8.1,0.0,84,0.00,CLR,CLR,0.00,0.0,WeatherDisplay:10.37,2013-01-02 09:51:00,
2013-01-02 01:56:00,35.4,31.1,29.56,SE,137,8.1,0.0,84,0.00,CLR,CLR,0.00,0.0,WeatherDisplay:10.37,2013-01-02 09:56:00,
2013-01-02 02:01:00,35.4,31.1,29.56,SE,137,8.1,0.0,84,0.00,CLR,CLR,0.00,0.0,WeatherDisplay:10.37,2013-01-02 10:01:00,
2013-01-02 02:06:00,35.4,31.1,29.56,ESE,102,8.1,0.0,84,0.00,CLR,CLR,0.00,0.0,WeatherDisplay:10.37,2013-01-02 10:06:00,
2013-01-02 02:11:00,35.4,31.1,29.56,ESE,102,8.1,0.0,84,0.00,CLR,CLR,0.00,0.0,WeatherDisplay:10.37,2013-01-02 10:11:00,
2013-01-02 02:17:00,35.2,30.9,29.56,ESE,102,8.1,0.0,84,0.00,CLR,CLR,0.00,0.0,WeatherDisplay:10.37,2013-01-02 10:17:00,
2013-01-02 02:22:00,35.1,30.7,29.56,ESE,102,8.1,0.0,84,0.00,CLR,CLR,0.00,0.0,WeatherDisplay:10.37,2013-01-02 10:22:00,
2013-01-02 02:27:00,34.9,30.5,29.56,ESE,102,8.1,0.0,84,0.00,CLR,CLR,0.00,0.0,WeatherDisplay:10.37,2013-01-02 10:27:00,
2013-01-02 02:32:00,34.9,30.5,29.56,ESE,102,8.1,0.0,84,0.00,CLR,CLR,0.00,0.0,WeatherDisplay:10.37,2013-01-02 10:32:00,
2013-01-02 02:37:00,35.1,30.7,29.56,ESE,102,8.1,0.0,84,0.00,CLR,CLR,0.00,0.0,WeatherDisplay:10.37,2013-01-02 10:37:00,
2013-01-02 02:42:00,35.1,30.7,29.56,ESE,113,8.1,0.0,84,0.00,CLR,CLR,0.00,0.0,WeatherDisplay:10.37,2013-01-02 10:42:00,
2013-01-02 02:47:00,35.2,30.9,29.56,South,171,8.1,0.0,84,0.00,CLR,CLR,0.00,0.0,WeatherDisplay:10.37,2013-01-02 10:47:00,
2013-01-02 02:53:00,35.4,31.1,29.56,South,171,8.1,0.0,84,0.00,CLR,CLR,0.00,0.0,WeatherDisplay:10.37,2013-01-02 10:53:00,
2013-01-02 02:58:00,35.4,31.1,29.56,SSE,147,8.1,0.0,84,0.00,CLR,CLR,0.00,0.0,WeatherDisplay:10.37,2013-01-02 10:58:00,
2013-01-02 03:03:00,35.6,31.2,29.56,SSE,147,8.1,0.0,84,0.00,CLR,CLR,0.00,0.0,WeatherDisplay:10.37,2013-01-02 11:03:00,
2013-01-02 03:08:00,35.8,31.4,29.56,SSE,147,8.1,0.0,84,0.00,CLR,CLR,0.00,0.0,WeatherDisplay:10.37,2013-01-02 11:08:00,
2013-01-02 03:13:00,35.8,31.4,29.56,SSE,147,8.1,0.0,84,0.00,CLR,CLR,0.00,0.0,WeatherDisplay:10.37,2013-01-02 11:13:00,
2013-01-02 03:18:00,36.0,31.6,29.56,SSE,147,8.1,0.0,84,0.00,CLR,CLR,0.00,0.0,WeatherDisplay:10.37,2013-01-02 11:18:00,
2013-01-02 03:23:00,36.0,31.6,29.56,SE,131,8.1,0.0,84,0.00,CLR,CLR,0.00,0.0,WeatherDisplay:10.37,2013-01-02 11:23:00,
2013-01-02 03:28:00,36.0,31.6,29.56,SE,131,8.1,0.0,84,0.00,CLR,CLR,0.00,0.0,WeatherDisplay:10.37,2013-01-02 11:28:00,
2013-01-02 03:33:00,36.0,31.6,29.56,East,96,8.1,0.0,84,0.00,CLR,CLR,0.00,0.0,WeatherDisplay:10.37,2013-01-02 11:33:00,
2013-01-02 03:38:00,36.1,31.8,29.56,East,96,8.1,0.0,84,0.00,CLR,CLR,0.00,0.0,WeatherDisplay:10.37,2013-01-02 11:38:00,
2013-01-02 03:43:00,36.0,31.6,29.56,East,96,8.1,0.0,84,0.00,CLR,CLR,0.00,0.0,WeatherDisplay:10.37,2013-01-02 11:43:00,
2013-01-02 03:48:00,35.8,31.4,29.56,East,96,8.1,0.0,84,0.00,CLR,CLR,0.00,0.0,WeatherDisplay:10.37,2013-01-02 11:48:00,
2013-01-02 03:53:00,35.8,31.4,29.56,SSE,161,8.1,0.0,84,0.00,CLR,CLR,0.00,0.0,WeatherDisplay:10.37,2013-01-02 11:53:00,
2013-01-02 03:58:00,35.8,31.4,29.56,SE,134,8.1,0.0,84,0.00,CLR,CLR,0.00,0.0,WeatherDisplay:10.37,2013-01-02 11:58:00,
2013-01-02 04:03:00,35.8,31.4,29.56,SE,134,8.1,0.0,84,0.00,CLR,CLR,0.00,0.0,WeatherDisplay:10.37,2013-01-02 12:03:00,
2013-01-02 04:08:00,35.8,31.4,29.56,SE,134,8.1,0.0,84,0.00,CLR,CLR,0.00,0.0,WeatherDisplay:10.37,2013-01-02 12:08:00,
2013-01-02 04:13:00,35.6,31.2,29.56,ESE,106,8.1,0.0,84,0.00,CLR,CLR,0.00,0.0,WeatherDisplay:10.37,2013-01-02 12:13:00,
2013-01-02 04:19:00,35.6,31.2,29.56,ESE,106,8.1,0.0,84,0.00,CLR,CLR,0.00,0.0,WeatherDisplay:10.37,2013-01-02 12:19:00,
2013-01-02 04:24:00,35.6,31.2,29.56,SSW,197,8.1,0.0,84,0.00,CLR,CLR,0.00,0.0,WeatherDisplay:10.37,2013-01-02 12:24:00,
2013-01-02 04:29:00,35.6,31.2,29.56,SSW,197,8.1,0.0,84,0.00,CLR,CLR,0.00,0.0,WeatherDisplay:10.37,2013-01-02 12:29:00,
2013-01-02 04:34:00,35.6,31.2,29.56,South,174,8.1,0.0,84,0.00,CLR,CLR,0.00,0.0,WeatherDisplay:10.37,2013-01-02 12:34:00,
2013-01-02 04:39:00,35.4,31.1,29.56,South,174,8.1,0.0,84,0.00,CLR,CLR,0.00,0.0,WeatherDisplay:10.37,2013-01-02 12:39:00,
2013-01-02 04:44:00,35.4,31.1,29.56,South,174,8.1,0.0,84,0.00,CLR,CLR,0.00,0.0,WeatherDisplay:10.37,2013-01-02 12:44:00,
2013-01-02 04:50:00,35.4,31.1,29.56,South,174,8.1,0.0,84,0.00,CLR,CLR,0.00,0.0,WeatherDisplay:10.37,2013-01-02 12:50:00,
2013-01-02 04:55:00,35.4,31.1,29.56,South,174,8.1,0.0,84,0.00,CLR,CLR,0.00,0.0,WeatherDisplay:10.37,2013-01-02 12:55:00,
2013-01-02 05:00:00,35.2,31.2,29.56,South,174,8.1,0.0,85,0.00,CLR,CLR,0.00,0.0,WeatherDisplay:10.37,2013-01-02 13:00:00,
2013-01-02 05:05:00,35.1,30.7,29.56,South,174,8.1,0.0,84,0.00,CLR,CLR,0.00,0.0,WeatherDisplay:10.37,2013-01-02 13:05:00,
2013-01-02 05:10:00,34.9,30.5,29.56,South,174,8.1,0.0,84,0.00,CLR,CLR,0.00,0.0,WeatherDisplay:10.37,2013-01-02 13:10:00,
2013-01-02 05:15:00,34.9,30.5,29.56,South,174,8.1,0.0,84,0.00,CLR,CLR,0.00,0.0,WeatherDisplay:10.37,2013-01-02 13:15:00,
2013-01-02 05:20:00,34.9,30.5,29.56,South,174,8.1,0.0,84,0.00,CLR,CLR,0.00,0.0,WeatherDisplay:10.37,2013-01-02 13:20:00,
2013-01-02 05:25:00,34.9,30.8,29.56,South,174,8.1,0.0,85,0.00,CLR,CLR,0.00,0.0,WeatherDisplay:10.37,2013-01-02 13:25:00,
2013-01-02 05:30:00,34.9,30.8,29.56,South,174,8.1,0.0,85,0.00,CLR,CLR,0.00,0.0,WeatherDisplay:10.37,2013-01-02 13:30:00,
2013-01-02 05:35:00,34.9,30.8,29.56,South,174,8.1,0.0,85,0.00,CLR,CLR,0.00,0.0,WeatherDisplay:10.37,2013-01-02 13:35:00,
2013-01-02 05:40:00,35.2,31.2,29.56,South,174,8.1,0.0,85,0.00,CLR,CLR,0.00,0.0,WeatherDisplay:10.37,2013-01-02 13:40:00,
2013-01-02 05:45:00,35.2,31.2,29.56,South,174,8.1,0.0,85,0.00,CLR,CLR,0.00,0.0,WeatherDisplay:10.37,2013-01-02 13:45:00,
2013-01-02 05:50:00,35.2,31.2,29.56,South,174,8.1,0.0,85,0.00,CLR,CLR,0.00,0.0,WeatherDisplay:10.37,2013-01-02 13:50:00,
2013-01-02 05:56:00,35.2,31.2,29.56,South,174,8.1,0.0,85,0.00,CLR,CLR,0.00,0.0,WeatherDisplay:10.37,2013-01-02 13:56:00,
2013-01-02 06:01:00,35.2,31.2,29.56,South,174,8.1,0.0,85,0.00,CLR,CLR,0.00,0.0,WeatherDisplay:10.37,2013-01-02 14:01:00,
2013-01-02 06:06:00,35.2,31.2,29.56,South,174,8.1,0.0,85,0.00,CLR,CLR,0.00,0.0,WeatherDisplay:10.37,2013-01-02 14:06:00,
2013-01-02 06:11:00,35.4,31.1,29.56,South,174,8.1,0.0,84,0.00,CLR,CLR,0.00,0.0,WeatherDisplay:10.37,2013-01-02 14:11:00,
2013-01-02 06:16:00,35.2,31.2,29.56,South,175,8.1,0.0,85,0.00,CLR,CLR,0.00,0.0,WeatherDisplay:10.37,2013-01-02 14:16:00,
2013-01-02 06:21:00,35.2,31.2,29.56,South,174,8.1,0.0,85,0.00,CLR,CLR,0.00,0.0,WeatherDisplay:10.37,2013-01-02 14:21:00,
2013-01-02 06:26:00,35.4,31.1,29.56,South,174,8.1,0.0,84,0.00,CLR,CLR,0.00,0.0,WeatherDisplay:10.37,2013-01-02 14:26:00,
2013-01-02 06:31:00,35.4,31.1,29.56,South,174,8.1,0.0,84,0.00,CLR,CLR,0.00,0.0,WeatherDisplay:10.37,2013-01-02 14:31:00,
2013-01-02 06:36:00,35.4,31.1,29.56,SSE,152,8.1,0.0,84,0.00,CLR,CLR,0.00,0.0,WeatherDisplay:10.37,2013-01-02 14:36:00,
2013-01-02 06:41:00,35.4,31.1,29.56,SSE,152,8.1,0.0,84,0.00,CLR,CLR,0.00,0.0,WeatherDisplay:10.37,2013-01-02 14:41:00,
2013-01-02 06:46:00,35.4,31.1,29.56,SSE,151,8.1,0.0,84,0.00,CLR,CLR,0.00,0.0,WeatherDisplay:10.37,2013-01-02 14:46:00,
2013-01-02 06:52:00,35.2,31.2,29.56,South,180,8.1,0.0,85,0.00,CLR,CLR,0.00,0.0,WeatherDisplay:10.37,2013-01-02 14:52:00,
2013-01-02 06:57:00,35.2,31.2,29.56,South,172,8.1,0.0,85,0.00,CLR,CLR,0.00,0.0,WeatherDisplay:10.37,2013-01-02 14:57:00,
2013-01-02 07:02:00,35.2,31.2,29.56,South,172,8.1,0.0,85,0.00,CLR,CLR,0.00,0.0,WeatherDisplay:10.37,2013-01-02 15:02:00,
2013-01-02 07:07:00,35.2,31.2,29.56,South,172,8.1,0.0,85,0.00,CLR,CLR,0.00,0.0,WeatherDisplay:10.37,2013-01-02 15:07:00,
2013-01-02 07:12:00,35.2,31.2,29.56,South,172,8.1,0.0,85,0.00,CLR,CLR,0.00,0.0,WeatherDisplay:10.37,2013-01-02 15:12:00,
2013-01-02 07:17:00,35.2,31.2,29.56,South,172,8.1,0.0,85,0.00,CLR,CLR,0.00,0.0,WeatherDisplay:10.37,2013-01-02 15:17:00,
2013-01-02 07:22:00,35.1,31.0,29.56,ESE,109,8.1,0.0,85,0.00,CLR,CLR,0.00,0.0,WeatherDisplay:10.37,2013-01-02 15:22:00,
2013-01-02 07:27:00,34.9,30.8,29.56,ESE,109,8.1,0.0,85,0.00,CLR,CLR,0.00,0.0,WeatherDisplay:10.37,2013-01-02 15:27:00,
2013-01-02 07:32:00,34.9,30.8,29.56,ESE,109,8.1,0.0,85,0.00,CLR,CLR,0.00,0.0,WeatherDisplay:10.37,2013-01-02 15:32:00,
2013-01-02 07:37:00,34.2,29.8,29.56,ESE,109,8.1,0.0,84,0.00,CLR,CLR,0.00,0.0,WeatherDisplay:10.37,2013-01-02 15:37:00,
2013-01-02 07:42:00,34.0,29.7,29.56,ESE,109,8.1,0.0,84,0.00,CLR,CLR,0.00,0.0,WeatherDisplay:10.37,2013-01-02 15:42:00,
2013-01-02 07:47:00,33.6,29.3,29.56,ESE,109,8.1,0.0,84,0.00,CLR,CLR,0.00,0.0,WeatherDisplay:10.37,2013-01-02 15:47:00,
2013-01-02 07:52:00,33.6,29.3,29.56,ESE,109,8.1,0.0,84,0.00,CLR,CLR,0.00,0.0,WeatherDisplay:10.37,2013-01-02 15:52:00,
2013-01-02 07:57:00,33.6,29.3,29.56,ESE,109,8.1,0.0,84,0.00,CLR,CLR,0.00,0.0,WeatherDisplay:10.37,2013-01-02 15:57:00,
2013-01-02 08:02:00,33.6,29.3,29.56,SE,143,8.1,0.0,84,0.00,CLR,CLR,0.00,0.0,WeatherDisplay:10.37,2013-01-02 16:02:00,
2013-01-02 08:07:00,33.6,29.6,29.56,SSE,154,8.1,0.0,85,0.00,CLR,CLR,0.00,0.0,WeatherDisplay:10.37,2013-01-02 16:07:00,
2013-01-02 08:13:00,34.0,29.9,29.56,South,177,8.1,0.0,85,0.00,CLR,CLR,0.00,0.0,WeatherDisplay:10.37,2013-01-02 16:13:00,
2013-01-02 08:18:00,34.3,30.3,29.56,South,180,8.1,0.0,85,0.00,CLR,CLR,0.00,0.0,WeatherDisplay:10.37,2013-01-02 16:18:00,
2013-01-02 08:23:00,34.7,30.7,29.56,South,180,8.1,0.0,85,0.00,CLR,CLR,0.00,0.0,WeatherDisplay:10.37,2013-01-02 16:23:00,
2013-01-02 08:28:00,34.9,30.8,29.56,SSE,167,8.1,0.0,85,0.00,CLR,CLR,0.00,0.0,WeatherDisplay:10.37,2013-01-02 16:28:00,
2013-01-02 08:33:00,35.1,31.0,29.56,SSE,167,8.1,0.0,85,0.00,CLR,CLR,0.00,0.0,WeatherDisplay:10.37,2013-01-02 16:33:00,
2013-01-02 08:38:00,35.2,31.2,29.56,SSE,167,8.1,0.0,85,0.00,CLR,CLR,0.00,0.0,WeatherDisplay:10.37,2013-01-02 16:38:00,
2013-01-02 08:43:00,35.4,31.1,29.56,SSE,167,8.1,0.0,84,0.00,CLR,CLR,0.00,0.0,WeatherDisplay:10.37,2013-01-02 16:43:00,
2013-01-02 08:48:00,35.6,31.5,29.56,SSE,167,8.1,0.0,85,0.00,CLR,CLR,0.00,0.0,WeatherDisplay:10.37,2013-01-02 16:48:00,
2013-01-02 08:53:00,35.6,31.5,29.56,SSE,167,8.1,0.0,85,0.00,CLR,CLR,0.00,0.0,WeatherDisplay:10.37,2013-01-02 16:53:00,
2013-01-02 08:58:00,35.8,31.7,29.56,SSE,167,8.1,0.0,85,0.00,CLR,CLR,0.00,0.0,WeatherDisplay:10.37,2013-01-02 16:58:00,
2013-01-02 09:03:00,36.0,31.9,29.56,SSE,166,8.1,0.0,85,0.00,CLR,CLR,0.00,0.0,WeatherDisplay:10.37,2013-01-02 17:03:00,
2013-01-02 09:09:00,36.1,32.1,29.56,SSE,167,8.1,0.0,85,0.00,CLR,CLR,0.00,0.0,WeatherDisplay:10.37,2013-01-02 17:09:00,
2013-01-02 09:14:00,36.3,32.2,29.56,SSE,167,8.1,0.0,85,0.00,CLR,CLR,0.00,0.0,WeatherDisplay:10.37,2013-01-02 17:14:00,
2013-01-02 09:19:00,36.5,32.4,29.56,SSE,167,8.1,0.0,85,0.00,CLR,CLR,0.00,0.0,WeatherDisplay:10.37,2013-01-02 17:19:00,
2013-01-02 09:24:00,36.7,32.6,29.56,SSE,167,8.1,0.0,85,0.00,CLR,CLR,0.00,0.0,WeatherDisplay:10.37,2013-01-02 17:24:00,
2013-01-02 09:29:00,36.7,32.6,29.56,SSE,167,8.1,0.0,85,0.00,CLR,CLR,0.00,0.0,WeatherDisplay:10.37,2013-01-02 17:29:00,
2013-01-02 09:34:00,36.9,32.8,29.56,SSE,167,8.1,0.0,85,0.00,CLR,CLR,0.00,0.0,WeatherDisplay:10.37,2013-01-02 17:34:00,
2013-01-02 09:40:00,36.9,32.8,29.56,SSE,167,8.1,0.0,85,0.00,CLR,CLR,0.00,0.0,WeatherDisplay:10.37,2013-01-02 17:40:00,
2013-01-02 09:45:00,37.0,32.9,29.56,SSE,167,8.1,0.0,85,0.00,CLR,CLR,0.00,0.0,WeatherDisplay:10.37,2013-01-02 17:45:00,
2013-01-02 09:50:00,37.2,32.8,29.56,SSE,168,8.1,0.0,84,0.00,CLR,CLR,0.00,0.0,WeatherDisplay:10.37,2013-01-02 17:50:00,
2013-01-02 09:55:00,37.4,33.0,29.56,SSE,167,8.1,0.0,84,0.00,CLR,CLR,0.00,0.0,WeatherDisplay:10.37,2013-01-02 17:55:00,
2013-01-02 10:00:00,37.6,33.2,29.56,SSE,167,8.1,0.0,84,0.00,CLR,CLR,0.00,0.0,WeatherDisplay:10.37,2013-01-02 18:00:00,
2013-01-02 10:05:00,37.8,33.4,29.56,SSE,167,8.1,0.0,84,0.00,CLR,CLR,0.00,0.0,WeatherDisplay:10.37,2013-01-02 18:05:00,
2013-01-02 10:10:00,37.9,33.5,29.56,SSE,167,8.1,0.0,84,0.00,CLR,CLR,0.00,0.0,WeatherDisplay:10.37,2013-01-02 18:10:00,
2013-01-02 10:15:00,37.9,33.5,29.56,SSE,167,8.1,0.0,84,0.00,CLR,CLR,0.00,0.0,WeatherDisplay:10.37,2013-01-02 18:15:00,
2013-01-02 10:20:00,38.3,33.9,29.56,SSE,167,8.1,0.0,84,0.00,CLR,CLR,0.00,0.0,WeatherDisplay:10.37,2013-01-02 18:20:00,
2013-01-02 10:26:00,38.7,34.5,29.56,East,97,8.1,0.0,85,0.00,CLR,CLR,0.00,0.0,WeatherDisplay:10.37,2013-01-02 18:26:00,
2013-01-02 10:31:00,38.8,34.7,29.56,East,97,8.1,0.0,85,0.00,CLR,CLR,0.00,0.0,WeatherDisplay:10.37,2013-01-02 18:31:00,
2013-01-02 10:36:00,39.0,34.6,29.56,East,97,8.1,0.0,84,0.00,CLR,CLR,0.00,0.0,WeatherDisplay:10.37,2013-01-02 18:36:00,
2013-01-02 10:41:00,39.2,34.8,29.56,East,97,8.1,0.0,84,0.00,CLR,CLR,0.00,0.0,WeatherDisplay:10.37,2013-01-02 18:41:00,
2013-01-02 10:46:00,39.6,35.1,29.56,East,97,8.1,0.0,84,0.00,CLR,CLR,0.00,0.0,WeatherDisplay:10.37,2013-01-02 18:46:00,
2013-01-02 10:51:00,39.7,35.3,29.56,East,97,8.1,0.0,84,0.00,CLR,CLR,0.00,0.0,WeatherDisplay:10.37,2013-01-02 18:51:00,
2013-01-02 10:56:00,40.1,35.7,29.56,East,97,8.1,0.0,84,0.00,CLR,CLR,0.00,0.0,WeatherDisplay:10.37,2013-01-02 18:56:00,
2013-01-02 11:01:00,40.3,35.8,29.56,ESE,112,8.1,0.0,84,0.00,CLR,CLR,0.00,0.0,WeatherDisplay:10.37,2013-01-02 19:01:00,
2013-01-02 11:06:00,40.8,36.4,29.56,ESE,110,8.1,0.0,84,0.00,CLR,CLR,0.00,0.0,WeatherDisplay:10.37,2013-01-02 19:06:00,
2013-01-02 11:11:00,41.2,36.7,29.56,SSE,150,8.1,0.0,84,0.00,CLR,CLR,0.00,0.0,WeatherDisplay:10.37,2013-01-02 19:11:00,
2013-01-02 11:16:00,41.5,37.1,29.56,ESE,113,8.1,0.0,84,0.00,CLR,CLR,0.00,0.0,WeatherDisplay:10.37,2013-01-02 19:16:00,
2013-01-02 11:22:00,41.9,37.4,29.56,SSE,167,8.1,0.0,84,0.00,CLR,CLR,0.00,0.0,WeatherDisplay:10.37,2013-01-02 19:22:00,
2013-01-02 11:27:00,42.1,37.6,29.56,East,85,8.1,0.0,84,0.00,CLR,CLR,0.00,0.0,WeatherDisplay:10.37,2013-01-02 19:27:00,
2013-01-02 11:32:00,42.4,37.9,29.56,ESE,104,8.1,0.0,84,0.00,CLR,CLR,0.00,0.0,WeatherDisplay:10.37,2013-01-02 19:32:00,
2013-01-02 11:37:00,42.6,37.8,29.56,ESE,102,8.1,0.0,83,0.00,CLR,CLR,0.00,0.0,WeatherDisplay:10.37,2013-01-02 19:37:00,
2013-01-02 11:42:00,42.8,38.0,29.56,East,98,8.1,0.0,83,0.00,CLR,CLR,0.00,0.0,WeatherDisplay:10.37,2013-01-02 19:42:00,
2013-01-02 11:48:00,43.2,38.3,29.56,East,98,8.1,0.0,83,0.00,CLR,CLR,0.00,0.0,WeatherDisplay:10.37,2013-01-02 19:48:00,
2013-01-02 11:53:00,43.2,38.3,29.56,ESE,122,8.1,0.0,83,0.00,CLR,CLR,0.00,0.0,WeatherDisplay:10.37,2013-01-02 19:53:00,
2013-01-02 11:58:00,43.3,38.5,29.56,ESE,105,8.1,0.0,83,0.00,CLR,CLR,0.00,0.0,WeatherDisplay:10.37,2013-01-02 19:58:00,
2013-01-02 12:03:00,43.5,38.7,29.56,ENE,77,8.1,0.0,83,0.00,CLR,CLR,0.00,0.0,WeatherDisplay:10.37,2013-01-02 20:03:00,
2013-01-02 12:08:00,43.9,38.7,29.56,East,93,8.1,0.0,82,0.00,CLR,CLR,0.00,0.0,WeatherDisplay:10.37,2013-01-02 20:08:00,
2013-01-02 12:13:00,44.2,39.1,29.56,East,93,8.1,0.0,82,0.00,CLR,CLR,0.00,0.0,WeatherDisplay:10.37,2013-01-02 20:13:00,
2013-01-02 12:18:00,44.4,39.3,29.56,East,96,8.1,0.0,82,0.00,CLR,CLR,0.00,0.0,WeatherDisplay:10.37,2013-01-02 20:18:00,
2013-01-02 12:24:00,44.4,39.0,29.56,East,98,8.1,0.0,81,0.00,CLR,CLR,0.00,0.0,WeatherDisplay:10.37,2013-01-02 20:24:00,
2013-01-02 12:29:00,44.4,39.0,29.56,East,96,8.1,0.0,81,0.00,CLR,CLR,0.00,0.0,WeatherDisplay:10.37,2013-01-02 20:29:00,
2013-01-02 12:34:00,44.6,39.1,29.56,East,97,8.1,0.0,81,0.00,CLR,CLR,0.00,0.0,WeatherDisplay:10.37,2013-01-02 20:34:00,
2013-01-02 12:39:00,44.6,38.8,29.56,ESE,103,8.1,0.0,80,0.00,CLR,CLR,0.00,0.0,WeatherDisplay:10.37,2013-01-02 20:39:00,
2013-01-02 12:44:00,45.0,39.2,29.56,ESE,103,8.1,0.0,80,0.00,CLR,CLR,0.00,0.0,WeatherDisplay:10.37,2013-01-02 20:44:00,
2013-01-02 12:49:00,45.1,39.3,29.56,ESE,103,8.1,0.0,80,0.00,CLR,CLR,0.00,0.0,WeatherDisplay:10.37,2013-01-02 20:49:00,
2013-01-02 12:54:00,45.5,39.4,29.56,ESE,103,8.1,0.0,79,0.00,CLR,CLR,0.00,0.0,WeatherDisplay:10.37,2013-01-02 20:54:00,
2013-01-02 12:59:00,45.7,38.9,29.56,ESE,103,8.1,0.0,77,0.00,CLR,CLR,0.00,0.0,WeatherDisplay:10.37,2013-01-02 20:59:00,
2013-01-02 13:04:00,45.9,39.1,29.56,East,100,8.1,0.0,77,0.00,CLR,CLR,0.00,0.0,WeatherDisplay:10.37,2013-01-02 21:04:00,
2013-01-02 13:09:00,45.9,38.7,29.56,East,100,8.1,0.0,76,0.00,CLR,CLR,0.00,0.0,WeatherDisplay:10.37,2013-01-02 21:09:00,
2013-01-02 13:14:00,46.0,38.9,29.56,East,101,8.1,0.0,76,0.00,CLR,CLR,0.00,0.0,WeatherDisplay:10.37,2013-01-02 21:14:00,
2013-01-02 13:19:00,46.2,39.1,29.56,East,101,8.1,0.0,76,0.00,CLR,CLR,0.00,0.0,WeatherDisplay:10.37,2013-01-02 21:19:00,
2013-01-02 13:25:00,46.4,39.2,29.56,East,97,8.1,0.0,76,0.00,CLR,CLR,0.00,0.0,WeatherDisplay:10.37,2013-01-02 21:25:00,
2013-01-02 13:30:00,46.4,39.2,29.56,East,97,8.1,0.0,76,0.00,CLR,CLR,0.00,0.0,WeatherDisplay:10.37,2013-01-02 21:30:00,
2013-01-02 13:35:00,46.4,38.9,29.56,East,97,8.1,0.0,75,0.00,CLR,CLR,0.00,0.0,WeatherDisplay:10.37,2013-01-02 21:35:00,
2013-01-02 13:40:00,46.4,38.9,29.56,East,97,8.1,0.0,75,0.00,CLR,CLR,0.00,0.0,WeatherDisplay:10.37,2013-01-02 21:40:00,
2013-01-02 13:45:00,46.4,38.9,29.56,East,97,8.1,0.0,75,0.00,CLR,CLR,0.00,0.0,WeatherDisplay:10.37,2013-01-02 21:45:00,
2013-01-02 13:51:00,46.6,39.1,29.56,SE,127,8.1,0.0,75,0.00,CLR,CLR,0.00,0.0,WeatherDisplay:10.37,2013-01-02 21:51:00,
2013-01-02 13:56:00,46.6,38.7,29.56,SE,129,8.1,0.0,74,0.00,CLR,CLR,0.00,0.0,WeatherDisplay:10.37,2013-01-02 21:56:00,
2013-01-02 14:01:00,46.6,38.7,29.56,SE,129,8.1,0.0,74,0.00,CLR,CLR,0.00,0.0,WeatherDisplay:10.37,2013-01-02 22:01:00,
2013-01-02 14:06:00,46.4,38.2,29.56,South,179,8.1,0.0,73,0.00,CLR,CLR,0.00,0.0,WeatherDisplay:10.37,2013-01-02 22:06:00,
2013-01-02 14:12:00,46.4,38.2,29.56,South,179,8.1,0.0,73,0.00,CLR,CLR,0.00,0.0,WeatherDisplay:10.37,2013-01-02 22:12:00,
2013-01-02 14:17:00,46.4,37.9,29.56,South,179,8.1,0.0,72,0.00,CLR,CLR,0.00,0.0,WeatherDisplay:10.37,2013-01-02 22:17:00,
2013-01-02 14:22:00,46.2,37.7,29.56,South,179,8.1,0.0,72,0.00,CLR,CLR,0.00,0.0,WeatherDisplay:10.37,2013-01-02 22:22:00,
2013-01-02 14:27:00,46.2,37.7,29.56,South,179,8.1,0.0,72,0.00,CLR,CLR,0.00,0.0,WeatherDisplay:10.37,2013-01-02 22:27:00,
2013-01-02 14:33:00,46.2,37.7,29.56,ESE,102,8.1,0.0,72,0.00,CLR,CLR,0.00,0.0,WeatherDisplay:10.37,2013-01-02 22:33:00,
2013-01-02 14:38:00,46.2,37.7,29.56,East,99,8.1,0.0,72,0.00,CLR,CLR,0.00,0.0,WeatherDisplay:10.37,2013-01-02 22:38:00,
2013-01-02 14:43:00,46.2,37.3,29.56,East,96,8.1,0.0,71,0.00,CLR,CLR,0.00,0.0,WeatherDisplay:10.37,2013-01-02 22:43:00,
2013-01-02 14:48:00,46.0,37.2,29.56,East,93,8.1,0.0,71,0.00,CLR,CLR,0.00,0.0,WeatherDisplay:10.37,2013-01-02 22:48:00,
2013-01-02 14:53:00,45.9,36.6,29.56,East,93,8.1,0.0,70,0.00,CLR,CLR,0.00,0.0,WeatherDisplay:10.37,2013-01-02 22:53:00,
2013-01-02 14:58:00,45.7,36.5,29.56,East,93,8.1,0.0,70,0.00,CLR,CLR,0.00,0.0,WeatherDisplay:10.37,2013-01-02 22:58:00,
2013-01-02 15:03:00,45.7,36.1,29.56,East,93,8.1,0.0,69,0.00,CLR,CLR,0.00,0.0,WeatherDisplay:10.37,2013-01-02 23:03:00,
2013-01-02 15:08:00,45.5,35.9,29.56,East,93,8.1,0.0,69,0.00,CLR,CLR,0.00,0.0,WeatherDisplay:10.37,2013-01-02 23:08:00,
2013-01-02 15:13:00,45.1,35.2,29.56,East,93,8.1,0.0,68,0.00,CLR,CLR,0.00,0.0,WeatherDisplay:10.37,2013-01-02 23:13:00,
2013-01-02 15:18:00,45.0,34.7,29.56,SE,127,8.1,0.0,67,0.00,CLR,CLR,0.00,0.0,WeatherDisplay:10.37,2013-01-02 23:18:00,
2013-01-02 15:23:00,44.6,34.3,29.56,SE,127,8.1,0.0,67,0.00,CLR,CLR,0.00,0.0,WeatherDisplay:10.37,2013-01-02 23:23:00,
2013-01-02 15:29:00,44.2,34.0,29.56,SE,127,8.1,0.0,67,0.00,CLR,CLR,0.00,0.0,WeatherDisplay:10.37,2013-01-02 23:29:00,
2013-01-02 15:34:00,44.1,33.8,29.56,SE,127,8.1,0.0,67,0.00,CLR,CLR,0.00,0.0,WeatherDisplay:10.37,2013-01-02 23:34:00,
2013-01-02 15:39:00,43.7,33.1,29.56,SE,127,8.1,0.0,66,0.00,CLR,CLR,0.00,0.0,WeatherDisplay:10.37,2013-01-02 23:39:00,
2013-01-02 15:44:00,43.3,32.7,29.56,SE,127,8.1,0.0,66,0.00,CLR,CLR,0.00,0.0,WeatherDisplay:10.37,2013-01-02 23:44:00,
2013-01-02 15:49:00,43.2,32.6,29.56,SE,127,8.1,0.0,66,0.00,CLR,CLR,0.00,0.0,WeatherDisplay:10.37,2013-01-02 23:49:00,
2013-01-02 15:54:00,42.8,32.2,29.56,SE,127,8.1,0.0,66,0.00,CLR,CLR,0.00,0.0,WeatherDisplay:10.37,2013-01-02 23:54:00,
2013-01-02 15:59:00,42.6,32.0,29.56,ESE,106,8.1,0.0,66,0.00,CLR,CLR,0.00,0.0,WeatherDisplay:10.37,2013-01-02 23:59:00,
2013-01-02 16:04:00,42.3,32.1,29.56,ESE,106,8.1,0.0,67,0.00,CLR,CLR,0.00,0.0,WeatherDisplay:10.37,2013-01-03 00:04:00,
2013-01-02 16:09:00,42.1,31.9,29.56,ESE,106,8.1,0.0,67,0.00,CLR,CLR,0.00,0.0,WeatherDisplay:10.37,2013-01-03 00:09:00,
2013-01-02 16:14:00,41.7,31.6,29.56,East,89,8.1,0.0,67,0.00,CLR,CLR,0.00,0.0,WeatherDisplay:10.37,2013-01-03 00:14:00,
2013-01-02 16:19:00,41.5,31.4,29.56,East,89,8.1,0.0,67,0.00,CLR,CLR,0.00,0.0,WeatherDisplay:10.37,2013-01-03 00:19:00,
2013-01-02 16:24:00,41.0,30.9,29.56,East,89,8.1,0.0,67,0.00,CLR,CLR,0.00,0.0,WeatherDisplay:10.37,2013-01-03 00:24:00,
2013-01-02 16:29:00,40.8,30.7,29.56,East,89,8.1,0.0,67,0.00,CLR,CLR,0.00,0.0,WeatherDisplay:10.37,2013-01-03 00:29:00,
2013-01-02 16:35:00,40.5,30.4,29.56,East,89,8.1,0.0,67,0.00,CLR,CLR,0.00,0.0,WeatherDisplay:10.37,2013-01-03 00:35:00,
2013-01-02 16:40:00,40.1,30.4,29.56,East,89,8.1,0.0,68,0.00,CLR,CLR,0.00,0.0,WeatherDisplay:10.37,2013-01-03 00:40:00,
2013-01-02 16:45:00,39.9,30.2,29.56,East,89,8.1,0.0,68,0.00,CLR,CLR,0.00,0.0,WeatherDisplay:10.37,2013-01-03 00:45:00,
2013-01-02 16:51:00,39.6,29.9,29.56,East,89,8.1,0.0,68,0.00,CLR,CLR,0.00,0.0,WeatherDisplay:10.37,2013-01-03 00:51:00,
2013-01-02 16:56:00,39.6,29.9,29.56,East,89,8.1,0.0,68,0.00,CLR,CLR,0.00,0.0,WeatherDisplay:10.37,2013-01-03 00:56:00,
2013-01-02 17:01:00,39.2,29.9,29.56,East,89,8.1,0.0,69,0.00,CLR,CLR,0.00,0.0,WeatherDisplay:10.37,2013-01-03 01:01:00,
2013-01-02 17:06:00,39.2,29.9,29.56,East,89,8.1,0.0,69,0.00,CLR,CLR,0.00,0.0,WeatherDisplay:10.37,2013-01-03 01:06:00,
2013-01-02 17:11:00,39.0,29.7,29.56,East,89,8.1,0.0,69,0.00,CLR,CLR,0.00,0.0,WeatherDisplay:10.37,2013-01-03 01:11:00,
2013-01-02 17:16:00,38.8,29.5,29.56,East,89,8.1,0.0,69,0.00,CLR,CLR,0.00,0.0,WeatherDisplay:10.37,2013-01-03 01:16:00,
2013-01-02 17:21:00,38.7,29.4,29.56,East,89,8.1,0.0,69,0.00,CLR,CLR,0.00,0.0,WeatherDisplay:10.37,2013-01-03 01:21:00,
2013-01-02 17:26:00,38.1,29.2,29.56,East,89,8.1,0.0,70,0.00,CLR,CLR,0.00,0.0,WeatherDisplay:10.37,2013-01-03 01:26:00,
2013-01-02 17:31:00,37.8,28.9,29.56,East,89,8.1,0.0,70,0.00,CLR,CLR,0.00,0.0,WeatherDisplay:10.37,2013-01-03 01:31:00,
2013-01-02 17:36:00,37.6,28.7,29.56,East,89,8.1,0.0,70,0.00,CLR,CLR,0.00,0.0,WeatherDisplay:10.37,2013-01-03 01:36:00,
2013-01-02 17:41:00,37.4,28.5,29.56,East,94,8.1,0.0,70,0.00,CLR,CLR,0.00,0.0,WeatherDisplay:10.37,2013-01-03 01:41:00,
2013-01-02 17:46:00,37.2,28.3,29.56,East,83,8.1,0.0,70,0.00,CLR,CLR,0.00,0.0,WeatherDisplay:10.37,2013-01-03 01:46:00,
2013-01-02 17:51:00,37.2,28.7,29.56,East,101,8.1,0.0,71,0.00,CLR,CLR,0.00,0.0,WeatherDisplay:10.37,2013-01-03 01:51:00,
2013-01-02 17:57:00,37.4,28.9,29.56,ESE,102,8.1,0.0,71,0.00,CLR,CLR,0.00,0.0,WeatherDisplay:10.37,2013-01-03 01:57:00,
2013-01-02 18:02:00,37.2,28.7,29.56,ESE,103,8.1,0.0,71,0.00,CLR,CLR,0.00,0.0,WeatherDisplay:10.37,2013-01-03 02:02:00,
2013-01-02 18:07:00,37.2,28.7,29.56,South,181,8.1,0.0,71,0.00,CLR,CLR,0.00,0.0,WeatherDisplay:10.37,2013-01-03 02:07:00,
2013-01-02 18:12:00,36.9,28.3,29.56,SE,131,8.1,0.0,71,0.00,CLR,CLR,0.00,0.0,WeatherDisplay:10.37,2013-01-03 02:12:00,
2013-01-02 18:17:00,37.0,28.8,29.56,SE,140,8.1,0.0,72,0.00,CLR,CLR,0.00,0.0,WeatherDisplay:10.37,2013-01-03 02:17:00,
2013-01-02 18:22:00,37.0,28.8,29.56,SE,136,8.1,0.0,72,0.00,CLR,CLR,0.00,0.0,WeatherDisplay:10.37,2013-01-03 02:22:00,
2013-01-02 18:27:00,37.0,28.8,29.56,SE,136,8.1,0.0,72,0.00,CLR,CLR,0.00,0.0,WeatherDisplay:10.37,2013-01-03 02:27:00,
2013-01-02 18:33:00,37.0,28.8,29.56,SE,136,8.1,0.0,72,0.00,CLR,CLR,0.00,0.0,WeatherDisplay:10.37,2013-01-03 02:33:00,
2013-01-02 18:38:00,37.0,28.8,29.56,SE,136,8.1,0.0,72,0.00,CLR,CLR,0.00,0.0,WeatherDisplay:10.37,2013-01-03 02:38:00,
2013-01-02 18:43:00,36.9,28.7,29.56,SE,136,8.1,0.0,72,0.00,CLR,CLR,0.00,0.0,WeatherDisplay:10.37,2013-01-03 02:43:00,
2013-01-02 18:48:00,36.9,28.7,29.56,SE,136,8.1,0.0,72,0.00,CLR,CLR,0.00,0.0,WeatherDisplay:10.37,2013-01-03 02:48:00,
2013-01-02 18:53:00,36.7,28.5,29.56,SE,136,8.1,0.0,72,0.00,CLR,CLR,0.00,0.0,WeatherDisplay:10.37,2013-01-03 02:53:00,
2013-01-02 18:58:00,36.5,28.3,29.56,SE,136,8.1,0.0,72,0.00,CLR,CLR,0.00,0.0,WeatherDisplay:10.37,2013-01-03 02:58:00,
2013-01-02 19:03:00,36.3,28.2,29.56,SE,136,8.1,0.0,72,0.00,CLR,CLR,0.00,0.0,WeatherDisplay:10.37,2013-01-03 03:03:00,
2013-01-02 19:09:00,35.8,27.3,29.56,SE,136,8.1,0.0,71,0.00,CLR,CLR,0.00,0.0,WeatherDisplay:10.37,2013-01-03 03:09:00,
2013-01-02 19:14:00,35.6,27.5,29.56,SE,136,8.1,0.0,72,0.00,CLR,CLR,0.00,0.0,WeatherDisplay:10.37,2013-01-03 03:14:00,
2013-01-02 19:19:00,35.2,27.4,29.56,SE,136,8.1,0.0,73,0.00,CLR,CLR,0.00,0.0,WeatherDisplay:10.37,2013-01-03 03:19:00,
2013-01-02 19:24:00,35.2,27.4,29.56,SE,136,8.1,0.0,73,0.00,CLR,CLR,0.00,0.0,WeatherDisplay:10.37,2013-01-03 03:24:00,
2013-01-02 19:29:00,35.4,27.6,29.56,SE,136,8.1,0.0,73,0.00,CLR,CLR,0.00,0.0,WeatherDisplay:10.37,2013-01-03 03:29:00,
2013-01-02 19:35:00,35.4,27.6,29.56,SE,136,8.1,0.0,73,0.00,CLR,CLR,0.00,0.0,WeatherDisplay:10.37,2013-01-03 03:35:00,
2013-01-02 19:40:00,35.4,27.6,29.56,SE,136,8.1,0.0,73,0.00,CLR,CLR,0.00,0.0,WeatherDisplay:10.37,2013-01-03 03:40:00,
2013-01-02 19:45:00,35.2,27.4,29.56,SE,136,8.1,0.0,73,0.00,CLR,CLR,0.00,0.0,WeatherDisplay:10.37,2013-01-03 03:45:00,
2013-01-02 19:50:00,35.4,27.6,29.56,SE,136,8.1,0.0,73,0.00,CLR,CLR,0.00,0.0,WeatherDisplay:10.37,2013-01-03 03:50:00,
2013-01-02 19:55:00,35.2,27.4,29.56,SE,136,8.1,0.0,73,0.00,CLR,CLR,0.00,0.0,WeatherDisplay:10.37,2013-01-03 03:55:00,
2013-01-02 20:00:00,35.2,27.8,29.56,SE,136,8.1,0.0,74,0.00,CLR,CLR,0.00,0.0,WeatherDisplay:10.37,2013-01-03 04:00:00,
2013-01-02 20:05:00,35.1,27.6,29.56,SE,136,8.1,0.0,74,0.00,CLR,CLR,0.00,0.0,WeatherDisplay:10.37,2013-01-03 04:05:00,
2013-01-02 20:11:00,35.1,27.6,29.56,SE,136,8.1,0.0,74,0.00,CLR,CLR,0.00,0.0,WeatherDisplay:10.37,2013-01-03 04:11:00,
2013-01-02 20:16:00,35.1,27.6,29.56,SE,136,8.1,0.0,74,0.00,CLR,CLR,0.00,0.0,WeatherDisplay:10.37,2013-01-03 04:16:00,
2013-01-02 20:21:00,35.2,27.8,29.56,SE,136,8.1,0.0,74,0.00,CLR,CLR,0.00,0.0,WeatherDisplay:10.37,2013-01-03 04:21:00,
2013-01-02 20:26:00,35.2,27.8,29.56,SE,137,8.1,0.0,74,0.00,CLR,CLR,0.00,0.0,WeatherDisplay:10.37,2013-01-03 04:26:00,
2013-01-02 20:31:00,35.2,27.8,29.56,SE,137,8.1,0.0,74,0.00,CLR,CLR,0.00,0.0,WeatherDisplay:10.37,2013-01-03 04:31:00,
2013-01-02 20:36:00,35.2,27.8,29.56,SE,137,8.1,0.0,74,0.00,CLR,CLR,0.00,0.0,WeatherDisplay:10.37,2013-01-03 04:36:00,
2013-01-02 20:41:00,35.2,27.8,29.56,SE,137,8.1,0.0,74,0.00,CLR,CLR,0.00,0.0,WeatherDisplay:10.37,2013-01-03 04:41:00,
2013-01-02 20:46:00,35.1,27.9,29.56,SE,137,8.1,0.0,75,0.00,CLR,CLR,0.00,0.0,WeatherDisplay:10.37,2013-01-03 04:46:00,
2013-01-02 20:51:00,35.2,28.1,29.56,SE,137,8.1,0.0,75,0.00,CLR,CLR,0.00,0.0,WeatherDisplay:10.37,2013-01-03 04:51:00,
2013-01-02 20:56:00,35.2,28.1,29.56,SSE,154,8.1,0.0,75,0.00,CLR,CLR,0.00,0.0,WeatherDisplay:10.37,2013-01-03 04:56:00,
2013-01-02 21:00:00,35.1,27.9,29.56,SSE,154,8.1,0.0,75,0.00,CLR,CLR,0.00,0.0,WeatherDisplay:10.37,2013-01-03 05:00:00,
2013-01-02 21:02:00,35.2,28.1,29.56,SSE,154,8.1,0.0,75,0.00,CLR,CLR,0.00,0.0,WeatherDisplay:10.37,2013-01-03 05:02:00,
2013-01-02 21:03:00,35.2,28.1,29.56,SSE,154,8.1,0.0,75,0.00,CLR,CLR,0.00,0.0,WeatherDisplay:10.37,2013-01-03 05:03:00,
2013-01-02 21:08:00,35.1,27.9,29.56,SSE,154,8.1,0.0,75,0.00,CLR,CLR,0.00,0.0,WeatherDisplay:10.37,2013-01-03 05:08:00,
2013-01-02 21:13:00,35.1,27.9,29.56,SSE,154,8.1,0.0,75,0.00,CLR,CLR,0.00,0.0,WeatherDisplay:10.37,2013-01-03 05:13:00,
2013-01-02 21:18:00,35.2,28.1,29.56,SSE,154,8.1,0.0,75,0.00,CLR,CLR,0.00,0.0,WeatherDisplay:10.37,2013-01-03 05:18:00,
2013-01-02 21:23:00,35.1,27.9,29.56,SSE,154,8.1,0.0,75,0.00,CLR,CLR,0.00,0.0,WeatherDisplay:10.37,2013-01-03 05:23:00,
2013-01-02 21:28:00,34.9,28.1,29.56,SSE,154,8.1,0.0,76,0.00,CLR,CLR,0.00,0.0,WeatherDisplay:10.37,2013-01-03 05:28:00,
2013-01-02 21:34:00,34.9,28.1,29.56,SSE,154,8.1,0.0,76,0.00,CLR,CLR,0.00,0.0,WeatherDisplay:10.37,2013-01-03 05:34:00,
2013-01-02 21:39:00,34.7,27.9,29.56,SSE,154,8.1,0.0,76,0.00,CLR,CLR,0.00,0.0,WeatherDisplay:10.37,2013-01-03 05:39:00,
2013-01-02 21:44:00,34.5,27.7,29.56,SSE,154,8.1,0.0,76,0.00,CLR,CLR,0.00,0.0,WeatherDisplay:10.37,2013-01-03 05:44:00,
2013-01-02 21:49:00,34.7,27.9,29.56,SSE,154,8.1,0.0,76,0.00,CLR,CLR,0.00,0.0,WeatherDisplay:10.37,2013-01-03 05:49:00,
2013-01-02 21:54:00,34.5,27.7,29.56,SSE,154,8.1,0.0,76,0.00,CLR,CLR,0.00,0.0,WeatherDisplay:10.37,2013-01-03 05:54:00,
2013-01-02 22:00:00,34.5,27.7,29.56,SSE,154,8.1,0.0,76,0.00,CLR,CLR,0.00,0.0,WeatherDisplay:10.37,2013-01-03 06:00:00,
2013-01-02 22:05:00,34.5,28.1,29.56,SSE,154,8.1,0.0,77,0.00,CLR,CLR,0.00,0.0,WeatherDisplay:10.37,2013-01-03 06:05:00,
2013-01-02 22:10:00,34.3,27.9,29.56,SSE,154,8.1,0.0,77,0.00,CLR,CLR,0.00,0.0,WeatherDisplay:10.37,2013-01-03 06:10:00,
2013-01-02 22:15:00,34.3,27.9,29.56,SSE,154,8.1,0.0,77,0.00,CLR,CLR,0.00,0.0,WeatherDisplay:10.37,2013-01-03 06:15:00,
2013-01-02 22:20:00,34.3,27.9,29.56,SSE,154,8.1,0.0,77,0.00,CLR,CLR,0.00,0.0,WeatherDisplay:10.37,2013-01-03 06:20:00,
2013-01-02 22:25:00,34.3,27.9,29.56,SSE,154,8.1,0.0,77,0.00,CLR,CLR,0.00,0.0,WeatherDisplay:10.37,2013-01-03 06:25:00,
2013-01-02 22:30:00,34.3,27.9,29.56,SSE,154,8.1,0.0,77,0.00,CLR,CLR,0.00,0.0,WeatherDisplay:10.37,2013-01-03 06:30:00,
2013-01-02 22:35:00,34.5,28.1,29.56,SSE,154,8.1,0.0,77,0.00,CLR,CLR,0.00,0.0,WeatherDisplay:10.37,2013-01-03 06:35:00,
2013-01-02 22:41:00,34.5,28.1,29.56,SSE,154,8.1,0.0,77,0.00,CLR,CLR,0.00,0.0,WeatherDisplay:10.37,2013-01-03 06:41:00,
2013-01-02 22:46:00,34.3,27.9,29.56,SSE,154,8.1,0.0,77,0.00,CLR,CLR,0.00,0.0,WeatherDisplay:10.37,2013-01-03 06:46:00,
2013-01-02 22:51:00,34.5,28.1,29.56,SSE,154,8.1,0.0,77,0.00,CLR,CLR,0.00,0.0,WeatherDisplay:10.37,2013-01-03 06:51:00,
2013-01-02 22:56:00,34.3,28.2,29.56,SSE,154,8.1,0.0,78,0.00,CLR,CLR,0.00,0.0,WeatherDisplay:10.37,2013-01-03 06:56:00,
2013-01-02 23:01:00,34.2,28.0,29.56,SSE,154,8.1,0.0,78,0.00,CLR,CLR,0.00,0.0,WeatherDisplay:10.37,2013-01-03 07:01:00,
2013-01-02 23:06:00,34.2,28.0,29.56,SSE,154,8.1,0.0,78,0.00,CLR,CLR,0.00,0.0,WeatherDisplay:10.37,2013-01-03 07:06:00,
2013-01-02 23:11:00,34.2,28.0,29.56,SSE,154,8.1,0.0,78,0.00,CLR,CLR,0.00,0.0,WeatherDisplay:10.37,2013-01-03 07:11:00,
2013-01-02 23:16:00,34.2,28.0,29.56,SSE,154,8.1,0.0,78,0.00,CLR,CLR,0.00,0.0,WeatherDisplay:10.37,2013-01-03 07:16:00,
2013-01-02 23:21:00,34.3,28.2,29.56,SSE,154,8.1,0.0,78,0.00,CLR,CLR,0.00,0.0,WeatherDisplay:10.37,2013-01-03 07:21:00,
2013-01-02 23:26:00,34.3,28.5,29.56,SSE,155,8.1,0.0,79,0.00,CLR,CLR,0.00,0.0,WeatherDisplay:10.37,2013-01-03 07:26:00,
2013-01-02 23:31:00,34.2,28.3,29.56,SSE,154,8.1,0.0,79,0.00,CLR,CLR,0.00,0.0,WeatherDisplay:10.37,2013-01-03 07:31:00,
2013-01-02 23:36:00,34.2,28.3,29.56,SSE,154,8.1,0.0,79,0.00,CLR,CLR,0.00,0.0,WeatherDisplay:10.37,2013-01-03 07:36:00,
2013-01-02 23:41:00,34.0,28.2,29.56,SSE,154,8.1,0.0,79,0.00,CLR,CLR,0.00,0.0,WeatherDisplay:10.37,2013-01-03 07:41:00,
2013-01-02 23:46:00,33.8,28.0,29.56,SSE,154,8.1,0.0,79,0.00,CLR,CLR,0.00,0.0,WeatherDisplay:10.37,2013-01-03 07:46:00,
2013-01-02 23:51:00,33.4,27.9,29.56,SSE,154,8.1,0.0,80,0.00,CLR,CLR,0.00,0.0,WeatherDisplay:10.37,2013-01-03 07:51:00,
2013-01-02 23:57:00,33.1,27.6,29.56,SSE,154,8.1,0.0,80,0.00,CLR,CLR,0.00,0.0,WeatherDisplay:10.37,2013-01-03 07:57:00,